Torna al catalogo

ONEWEB-0255

AttivoComunicazioniPO
NORAD 48973·PAYLOAD·🇬🇧 United Kingdom

Lanciato Jul 1, 2021 da Vostochny Cosmodrome

Loading…

Prossimi Passaggi (prossime 24 ore)

TLE

AggiornatoSource: CelesTrak SupGP

Epoca: Sep 14, 2026, 14:10 UTC

1 48973C 21060G   26257.59045556 -.00000122  00000+0 -32009-3 0  2571
2 48973  87.9148 211.0277 0002058  75.1522  28.4752 13.16591143    10

Traccia ONEWEB-0255 in tempo reale con AllMySat

Download on the App Store